When you browse on this site, cookies collect data to enhance your experience and personalize the content and advertising you see.
Visit our Privacy Policy to learn more. By continuing to use the site, you agree to this use of cookies and data.
  • In United Kingdom
  • List of Countries
  • For 7 days
  • Water Temperature
  • Weather Map
  • Weather Widgets
  • user-avatar
    Login

    Hourly Weather Kiel

    Today, 17 October, Thursday

    Time Temperature Precipitation Wind Pressure Humidity
    00:00 +11°C° 0 mm 4 mps 754 mmHg 95%
    01:00 +11°C° 0 mm 4 mps 754 mmHg 95%
    02:00 +11°C° 0.7 mm 4 mps 754 mmHg 95%
    03:00 +12°C° 0.7 mm 5 mps 754 mmHg 95%
    04:00 +12°C° 0.7 mm 5 mps 753 mmHg 96%
    05:00 +12°C° 0.3 mm 5 mps 753 mmHg 95%
    06:00 +12°C° 0.3 mm 5 mps 753 mmHg 95%
    07:00 +13°C° 0.3 mm 5 mps 753 mmHg 95%
    08:00 +13°C° 0.1 mm 5 mps 754 mmHg 95%
    09:00 +13°C° 0.1 mm 5 mps 754 mmHg 94%
    10:00 +13°C° 0.1 mm 5 mps 755 mmHg 94%
    11:00 +13°C° 0.1 mm 5 mps 755 mmHg 94%
    12:00 +13°C° 0.1 mm 4 mps 755 mmHg 93%
    13:00 +13°C° 0.1 mm 4 mps 756 mmHg 93%
    14:00 +13°C° 0.1 mm 3 mps 756 mmHg 92%
    15:00 +13°C° 0.1 mm 3 mps 756 mmHg 91%
    16:00 +14°C° 0.1 mm 2 mps 756 mmHg 90%
    17:00 +14°C° 0.1 mm 2 mps 756 mmHg 91%
    18:00 +13°C° 0.1 mm 2 mps 756 mmHg 93%
    19:00 +12°C° 0.1 mm 1 mps 756 mmHg 94%
    20:00 +13°C° 0 mm 2 mps 756 mmHg 94%
    21:00 +13°C° 0 mm 2 mps 756 mmHg 94%
    22:00 +13°C° 0 mm 2 mps 756 mmHg 94%
    23:00 +12°C° 0.3 mm 3 mps 756 mmHg 95%

    Tomorrow, 18 October, Friday

    Time Temperature Precipitation Wind Pressure Humidity
    00:00 +12°C° 0.3 mm 3 mps 756 mmHg 96%
    01:00 +12°C° 0.3 mm 3 mps 756 mmHg 96%
    02:00 +12°C° 0.1 mm 3 mps 756 mmHg 96%
    03:00 +12°C° 0.1 mm 3 mps 755 mmHg 96%
    04:00 +12°C° 0.1 mm 4 mps 755 mmHg 96%
    05:00 +11°C° 0 mm 4 mps 755 mmHg 96%
    06:00 +11°C° 0 mm 4 mps 755 mmHg 95%
    07:00 +11°C° 0 mm 4 mps 755 mmHg 95%
    08:00 +12°C° 0 mm 4 mps 755 mmHg 92%
    09:00 +12°C° 0 mm 5 mps 754 mmHg 89%
    10:00 +13°C° 0 mm 6 mps 754 mmHg 87%
    11:00 +14°C° 0.1 mm 6 mps 754 mmHg 84%
    12:00 +15°C° 0.1 mm 6 mps 754 mmHg 82%
    13:00 +15°C° 0.1 mm 7 mps 753 mmHg 79%
    14:00 +15°C° 0.2 mm 6 mps 753 mmHg 79%
    15:00 +14°C° 0.2 mm 6 mps 753 mmHg 79%
    16:00 +14°C° 0.2 mm 6 mps 753 mmHg 79%
    17:00 +13°C° 0.4 mm 5 mps 753 mmHg 83%
    18:00 +12°C° 0.4 mm 5 mps 753 mmHg 86%
    19:00 +10°C° 0.4 mm 4 mps 753 mmHg 89%
    20:00 +9°C° 0 mm 5 mps 754 mmHg 90%
    21:00 +9°C° 0 mm 5 mps 754 mmHg 90%
    22:00 +8°C° 0 mm 5 mps 754 mmHg 90%
    23:00 +8°C° 0 mm 5 mps 754 mmHg 90%

    Day after tomorrow, 19 October, Saturday

    Time Temperature Precipitation Wind Pressure Humidity
    00:00 +8°C° 0 mm 5 mps 754 mmHg 91%
    01:00 +7°C° 0 mm 5 mps 754 mmHg 91%
    02:00 +7°C° 0 mm 5 mps 754 mmHg 90%
    03:00 +7°C° 0 mm 5 mps 754 mmHg 89%
    04:00 +7°C° 0 mm 5 mps 754 mmHg 89%
    05:00 +8°C° 0 mm 5 mps 754 mmHg 89%
    06:00 +8°C° 0 mm 5 mps 754 mmHg 89%
    07:00 +8°C° 0 mm 5 mps 753 mmHg 89%
    08:00 +9°C° 0 mm 5 mps 753 mmHg 87%
    09:00 +10°C° 0 mm 5 mps 753 mmHg 86%
    10:00 +12°C° 0 mm 5 mps 753 mmHg 84%
    11:00 +12°C° 0.1 mm 5 mps 753 mmHg 82%
    12:00 +13°C° 0.1 mm 5 mps 753 mmHg 80%
    13:00 +14°C° 0.1 mm 4 mps 753 mmHg 78%
    14:00 +13°C° 0.3 mm 4 mps 753 mmHg 81%
    15:00 +13°C° 0.3 mm 4 mps 753 mmHg 84%
    16:00 +12°C° 0.3 mm 4 mps 753 mmHg 87%
    17:00 +12°C° 0.1 mm 4 mps 753 mmHg 89%
    18:00 +11°C° 0.1 mm 4 mps 753 mmHg 92%
    19:00 +11°C° 0.1 mm 3 mps 753 mmHg 95%
    20:00 +10°C° 0 mm 3 mps 753 mmHg 95%
    21:00 +10°C° 0 mm 3 mps 754 mmHg 96%
    22:00 +10°C° 0 mm 3 mps 754 mmHg 97%
    23:00 +9°C° 0 mm 3 mps 754 mmHg 96%

    20 October, Sunday

    Time Temperature Precipitation Wind Pressure Humidity
    00:00 +9°C° 0 mm 3 mps 754 mmHg 96%
    01:00 +9°C° 0 mm 3 mps 754 mmHg 96%
    02:00 +9°C° 0 mm 3 mps 755 mmHg 96%
    03:00 +9°C° 0 mm 3 mps 755 mmHg 96%
    04:00 +8°C° 0 mm 3 mps 755 mmHg 96%
    05:00 +8°C° 0 mm 3 mps 755 mmHg 96%
    06:00 +7°C° 0 mm 4 mps 755 mmHg 96%
    07:00 +7°C° 0 mm 4 mps 756 mmHg 96%
    08:00 +8°C° 0 mm 4 mps 756 mmHg 93%
    09:00 +10°C° 0 mm 4 mps 757 mmHg 89%
    10:00 +11°C° 0 mm 4 mps 757 mmHg 86%
    11:00 +12°C° 0 mm 5 mps 757 mmHg 83%
    12:00 +13°C° 0 mm 5 mps 758 mmHg 80%
    13:00 +14°C° 0 mm 5 mps 758 mmHg 76%
    14:00 +13°C° 0 mm 4 mps 758 mmHg 78%
    15:00 +13°C° 0 mm 4 mps 759 mmHg 80%
    16:00 +12°C° 0 mm 3 mps 759 mmHg 82%
    17:00 +11°C° 0 mm 3 mps 760 mmHg 86%
    18:00 +10°C° 0 mm 3 mps 760 mmHg 89%
    19:00 +9°C° 0 mm 3 mps 761 mmHg 93%
    20:00 +9°C° 0 mm 3 mps 761 mmHg 94%
    21:00 +9°C° 0 mm 3 mps 762 mmHg 94%
    22:00 +9°C° 0 mm 3 mps 762 mmHg 95%
    23:00 +8°C° 0 mm 3 mps 762 mmHg 95%

    21 October, Monday

    Time Temperature Precipitation Wind Pressure Humidity
    00:00 +8°C° 0 mm 3 mps 763 mmHg 95%
    01:00 +8°C° 0 mm 2 mps 763 mmHg 95%
    02:00 +8°C° 0 mm 2 mps 763 mmHg 95%
    03:00 +8°C° 0 mm 2 mps 764 mmHg 95%
    04:00 +8°C° 0 mm 2 mps 764 mmHg 95%
    05:00 +7°C° 0 mm 2 mps 764 mmHg 95%
    06:00 +7°C° 0 mm 2 mps 764 mmHg 95%
    07:00 +7°C° 0 mm 2 mps 765 mmHg 95%
    08:00 +8°C° 0 mm 2 mps 765 mmHg 91%
    09:00 +11°C° 0 mm 1 mps 765 mmHg 87%
    10:00 +12°C° 0 mm 1 mps 766 mmHg 83%
    11:00 +13°C° 0 mm 1 mps 766 mmHg 79%
    12:00 +14°C° 0 mm 1 mps 766 mmHg 75%
    13:00 +13°C° 0 mm 0 mps 767 mmHg 71%
    14:00 +13°C° 0 mm 0 mps 767 mmHg 74%
    15:00 +13°C° 0 mm 0 mps 767 mmHg 76%
    16:00 +13°C° 0 mm 1 mps 767 mmHg 79%
    17:00 +12°C° 0 mm 1 mps 767 mmHg 82%
    18:00 +12°C° 0 mm 1 mps 767 mmHg 85%
    19:00 +10°C° 0 mm 2 mps 767 mmHg 88%
    20:00 +11°C° 0 mm 1 mps 768 mmHg 89%
    21:00 +10°C° 0 mm 1 mps 768 mmHg 89%
    22:00 +10°C° 0 mm 1 mps 768 mmHg 89%
    23:00 +10°C° 0 mm 1 mps 768 mmHg 90%

    22 October, Tuesday

    Time Temperature Precipitation Wind Pressure Humidity
    00:00 +9°C° 0 mm 1 mps 768 mmHg 90%
    01:00 +9°C° 0 mm 1 mps 768 mmHg 91%
    02:00 +9°C° 0 mm 1 mps 768 mmHg 91%
    03:00 +9°C° 0 mm 1 mps 768 mmHg 91%
    04:00 +8°C° 0 mm 1 mps 768 mmHg 92%
    05:00 +7°C° 0 mm 2 mps 768 mmHg 92%
    06:00 +7°C° 0 mm 2 mps 768 mmHg 93%
    07:00 +7°C° 0 mm 2 mps 768 mmHg 94%
    08:00 +9°C° 0 mm 3 mps 768 mmHg 90%
    09:00 +10°C° 0 mm 3 mps 769 mmHg 87%
    10:00 +12°C° 0 mm 4 mps 769 mmHg 83%
    11:00 +12°C° 0 mm 4 mps 769 mmHg 80%
    12:00 +13°C° 0 mm 4 mps 769 mmHg 77%
    13:00 +14°C° 0 mm 3 mps 769 mmHg 74%
    14:00 +13°C° 0 mm 3 mps 768 mmHg 77%
    15:00 +13°C° 0 mm 3 mps 768 mmHg 80%
    16:00 +12°C° 0 mm 3 mps 768 mmHg 82%
    17:00 +11°C° 0 mm 3 mps 768 mmHg 86%
    18:00 +10°C° 0 mm 4 mps 768 mmHg 90%
    19:00 +8°C° 0 mm 4 mps 768 mmHg 94%
    20:00 +8°C° 0 mm 4 mps 768 mmHg 94%
    21:00 +8°C° 0 mm 4 mps 768 mmHg 94%
    22:00 +8°C° 0 mm 4 mps 768 mmHg 95%
    23:00 +7°C° 0 mm 4 mps 767 mmHg 94%
    Show more